TimeMST,TemperatureF,Dew PointF,Humidity,Sea Level PressureIn,VisibilityMPH,Wind Direction,Wind SpeedMPH,Gust SpeedMPH,PrecipitationIn,Events,Conditions,WindDirDegrees,DateUTC
12:57 AM,28.0,24.1,85,30.09,10.0,Calm,Calm,-,N/A,,Clear,0,2013-11-14 07:57:00
1:57 AM,28.0,24.1,85,30.07,10.0,Calm,Calm,-,N/A,,Clear,0,2013-11-14 08:57:00
2:57 AM,30.9,27.0,85,30.06,10.0,SSW,3.5,-,N/A,,Clear,210,2013-11-14 09:57:00
3:57 AM,28.9,25.0,85,30.06,10.0,Calm,Calm,-,N/A,,Clear,0,2013-11-14 10:57:00
4:57 AM,28.0,24.1,85,30.08,10.0,Calm,Calm,-,N/A,,Clear,0,2013-11-14 11:57:00
5:57 AM,25.0,21.9,88,30.14,10.0,Calm,Calm,-,N/A,,Clear,0,2013-11-14 12:57:00
6:57 AM,25.0,21.0,85,30.17,10.0,Calm,Calm,-,N/A,,Clear,0,2013-11-14 13:57:00
7:57 AM,30.0,24.1,79,30.17,10.0,Calm,Calm,-,N/A,,Clear,0,2013-11-14 14:57:00
8:57 AM,46.9,24.1,41,30.11,10.0,NE,3.5,-,N/A,,Clear,50,2013-11-14 15:57:00
9:57 AM,53.1,21.9,30,30.09,10.0,East,8.1,-,N/A,,Clear,80,2013-11-14 16:57:00
10:57 AM,55.0,19.9,25,30.07,10.0,East,5.8,-,N/A,,Clear,90,2013-11-14 17:57:00
11:57 AM,57.9,18.0,21,30.04,10.0,North,-9999.0,-,N/A,,Clear,0,2013-11-14 18:57:00
12:57 PM,61.0,16.0,17,30.00,10.0,North,-9999.0,-,N/A,,Clear,0,2013-11-14 19:57:00
1:57 PM,61.0,12.9,15,29.97,10.0,Variable,4.6,-,N/A,,Clear,0,2013-11-14 20:57:00
2:57 PM,59.0,21.0,23,29.96,10.0,SSW,12.7,20.7,N/A,,Clear,200,2013-11-14 21:57:00
3:57 PM,57.9,18.0,21,29.95,10.0,WSW,8.1,-,N/A,,Clear,250,2013-11-14 22:57:00
4:57 PM,54.0,17.1,23,29.96,10.0,WSW,8.1,-,N/A,,Clear,240,2013-11-14 23:57:00
5:57 PM,46.9,17.1,30,30.00,10.0,SSW,4.6,-,N/A,,Clear,210,2013-11-15 00:57:00
6:57 PM,41.0,17.1,38,30.02,10.0,SSW,4.6,-,N/A,,Clear,200,2013-11-15 01:57:00
7:57 PM,39.0,18.0,43,29.99,10.0,SSW,5.8,-,N/A,,Clear,210,2013-11-15 02:57:00
8:57 PM,39.9,21.0,47,29.90,10.0,SW,5.8,-,N/A,,Clear,230,2013-11-15 03:57:00
9:57 PM,37.9,24.1,57,29.86,10.0,SW,5.8,-,N/A,,Clear,220,2013-11-15 04:57:00
10:57 PM,37.0,25.0,62,29.85,10.0,West,4.6,-,N/A,,Clear,260,2013-11-15 05:57:00
11:57 PM,42.1,30.0,62,29.79,10.0,WSW,8.1,-,N/A,,Clear,240,2013-11-15 06:57:00